Dallas/Ft Worth, TX

7:35 AM CDT on May 27, 2017 (GMT -0500)
Dallas-Fort Worth International

Weather History for KDFW - November, 2012

Change the Weather History Date:

Monday, November 5, 2012

  Actual Average Record
Temperature  
Mean Temperature 65 °F 61 °F  
Max Temperature 77 °F 71 °F 89 °F (2005)
Min Temperature 52 °F 50 °F 26 °F (1991)
Degree Days  
Heating Degree Days 0 6  
Month to date heating degree days 0 27  
Since 1 July heating degree days 98 99  
Cooling Degree Days 0 2  
Month to date cooling degree days 18 10  
Year to date cooling degree days 3301 2733  
Growing Degree Days 14 (Base 50)    
Moisture  
Dew Point 40 °F    
Average Humidity 53    
Maximum Humidity 83    
Minimum Humidity 23    
Precipitation  
Precipitation 0.00 in 0.10 in 2.14 in (2000)
Month to date precipitation 0.00 0.57  
Year to date precipitation 29.26 31.45  
Snow  
Snow 0.00 in 0.00 in 0.00 in ()
Month to date snowfall 0.0 0.0  
Since 1 July snowfall 0.0 0.0  
Since 1 September snowfall 0.0 0.0  
Snow Depth 0.00 in    
Sea Level Pressure  
Sea Level Pressure 30.04 in    
Wind  
Wind Speed 9 mph (NNW)    
Max Wind Speed 22 mph    
Max Gust Speed 28 mph    
Visibility 10 miles    
Events      
T = Trace of Precipitation, MM = Missing Value Source: NWS Daily Summary

Daily Weather History Graph

Daily Weather History Graph

Search for Another Location

Airport or City:

Trip Planner

Search our weather history database for the weather conditions in past years. The results will help you decide how hot, cold, wet, or windy it might be!

Date:

Astronomy

Nov. 05, 2012 Rise Set
Actual Time 6:49 AM CST 5:33 PM CST
Civil Twilight 6:24 AM CST 5:58 PM CST
Nautical Twilight 5:54 AM CST 6:28 PM CST
Astronomical Twilight 5:25 AM CST 6:57 PM CST
Moon 11:11 PM CST (11/5) 12:09 PM CST (11/5)
Length of Visible Light 11h 34m
Length of Day
10h 43m
Waning Gibbous, 62% of the Moon is Illuminated
Nov 5
Waning Gibbous
Nov 6
Last Quarter
Nov 13
New
Nov 20
First Quarter
Nov 28
Full

Hourly Weather History & Observations

Time (CST) Temp. Dew Point Humidity Pressure Visibility Wind Dir Wind Speed Gust Speed Precip Events Conditions
12:53 AM 54.0 °F 46.0 °F 75% 30.05 in 10.0 mi Calm Calm - N/A   Clear
1:53 AM 55.0 °F 46.9 °F 74% 30.04 in 10.0 mi Calm Calm - N/A   Clear
2:53 AM 55.0 °F 46.0 °F 72% 30.04 in 10.0 mi NNW 6.9 mph - N/A   Clear
3:53 AM 55.0 °F 48.0 °F 77% 30.03 in 10.0 mi NW 3.5 mph - N/A   Clear
4:53 AM 53.1 °F 46.9 °F 80% 30.03 in 10.0 mi NNW 5.8 mph - N/A   Mostly Cloudy
5:53 AM 53.1 °F 48.0 °F 83% 30.04 in 10.0 mi NNW 4.6 mph - N/A   Mostly Cloudy
6:53 AM 53.1 °F 46.0 °F 77% 30.03 in 10.0 mi NW 5.8 mph - N/A   Scattered Clouds
7:53 AM 57.0 °F 50.0 °F 77% 30.04 in 10.0 mi Calm Calm - N/A   Scattered Clouds
8:53 AM 62.1 °F 51.1 °F 67% 30.05 in 10.0 mi North 8.1 mph - N/A   Scattered Clouds
9:53 AM 69.1 °F 44.1 °F 40% 30.06 in 10.0 mi North 11.5 mph - N/A   Scattered Clouds
10:53 AM 71.1 °F 41.0 °F 34% 30.06 in 10.0 mi NNW 13.8 mph - N/A   Scattered Clouds
11:53 AM 75.0 °F 39.9 °F 28% 30.04 in 10.0 mi North 16.1 mph - N/A   Scattered Clouds
12:53 PM 75.0 °F 37.9 °F 26% 30.02 in 10.0 mi North 18.4 mph 23.0 mph N/A   Partly Cloudy
1:53 PM 75.9 °F 37.9 °F 25% 30.00 in 10.0 mi NNW 17.3 mph 24.2 mph N/A   Scattered Clouds
2:53 PM 75.9 °F 37.0 °F 24% 29.99 in 10.0 mi NNW 12.7 mph 21.9 mph N/A   Scattered Clouds
3:53 PM 75.0 °F 36.0 °F 24% 30.00 in 10.0 mi NNW 15.0 mph - N/A   Partly Cloudy
4:53 PM 72.0 °F 35.1 °F 26% 30.00 in 10.0 mi NNW 11.5 mph 20.7 mph N/A   Scattered Clouds
5:53 PM 68.0 °F 30.9 °F 25% 30.01 in 10.0 mi North 12.7 mph - N/A   Scattered Clouds
6:53 PM 66.0 °F 32.0 °F 28% 30.04 in 10.0 mi North 12.7 mph - N/A   Partly Cloudy
7:53 PM 62.1 °F 32.0 °F 32% 30.06 in 10.0 mi North 9.2 mph - N/A   Partly Cloudy
8:53 PM 57.9 °F 32.0 °F 37% 30.07 in 10.0 mi North 6.9 mph - N/A   Scattered Clouds
9:53 PM 57.9 °F 33.1 °F 39% 30.08 in 10.0 mi North 10.4 mph - N/A   Partly Cloudy
10:53 PM 57.0 °F 35.1 °F 44% 30.09 in 10.0 mi North 9.2 mph - N/A   Partly Cloudy
11:53 PM 53.1 °F 35.1 °F 50% 30.09 in 10.0 mi NNW 5.8 mph - N/A   Partly Cloudy